Location: Newark
(22.3060°N, 114.2134°E)
Time: 12:03:18
(UTC+00:00)

Explorer 11/Cluster Stage 4 - Visible Passes

Search period start: 04 August 2021 00:00
Search period end: 14 August 2021 00:00
Orbit: 467 x 1257 km, 28.8° (Epoch: 04 August)

Date Brightness Start Highest point End Pass type
(mag) Time Alt. Az. Time Alt. Az. Time Alt. Az.
04 Aug 8.4 20:54:52 10° SSW 20:59:41 28° SE 21:05:31 10° E visible
05 Aug 8.1 20:44:39 16° SSW 20:48:26 32° SSE 20:54:22 10° E visible
06 Aug 7.7 20:34:23 22° SSW 20:37:12 36° SSE 20:43:11 10° E visible
07 Aug 7.4 20:24:07 31° SSW 20:26:00 41° SSE 20:31:58 10° E visible
08 Aug 6.9 20:13:49 42° S 20:14:50 47° SSE 20:20:44 10° E visible
09 Aug 6.6 20:03:30 54° SSE 20:03:42 55° SSE 20:09:29 10° ENE visible
10 Aug 6.6 19:53:10 59° ESE 19:53:10 59° ESE 19:58:13 10° ENE visible
10 Aug 7.2 21:36:12 10° W 21:41:24 55° N 21:47:57 10° ENE visible
11 Aug 7.0 19:42:49 49° E 19:42:49 49° E 19:46:59 10° ENE visible
11 Aug 7.3 21:25:23 10° W 21:30:21 50° N 21:36:37 10° ENE visible
12 Aug 7.6 19:32:27 36° ENE 19:32:27 36° ENE 19:35:43 10° ENE visible
12 Aug 7.3 21:14:35 10° W 21:19:20 46° N 21:25:18 10° ENE visible
13 Aug 8.1 19:22:05 27° ENE 19:22:05 27° ENE 19:24:29 10° ENE visible
13 Aug 7.3 21:04:13 12° WNW 21:08:21 43° N 21:14:00 10° ENE visible
